• In Hungary
  • List of Countries
  • For 7 days
  • Water Temperature
  • Satellite Maps
  • Weather Map
  • News
  • Weather Widgets
  • user-avatar
    Login

    Hourly Weather Mendoza

    Today, 21 July, Saturday

    Time Temperature Precipitation Wind Pressure Humidity
    00:00 +6°C° 0 mm 2 mps 699 mmHg 37%
    01:00 +6°C° 0 mm 2 mps 699 mmHg 37%
    02:00 +6°C° 0 mm 2 mps 698 mmHg 38%
    03:00 +5°C° 0 mm 2 mps 698 mmHg 38%
    04:00 +5°C° 0 mm 2 mps 697 mmHg 38%
    05:00 +5°C° 0 mm 2 mps 697 mmHg 38%
    06:00 +5°C° 0 mm 2 mps 696 mmHg 38%
    07:00 +5°C° 0 mm 2 mps 696 mmHg 39%
    08:00 +7°C° 0 mm 3 mps 696 mmHg 34%
    09:00 +10°C° 0 mm 3 mps 696 mmHg 29%
    10:00 +12°C° 0 mm 4 mps 696 mmHg 25%
    11:00 +14°C° 0 mm 4 mps 695 mmHg 22%
    12:00 +15°C° 0 mm 5 mps 694 mmHg 19%
    13:00 +17°C° 0 mm 5 mps 693 mmHg 17%
    14:00 +17°C° 0 mm 4 mps 693 mmHg 17%
    15:00 +17°C° 0 mm 3 mps 693 mmHg 17%
    16:00 +17°C° 0 mm 2 mps 692 mmHg 17%
    17:00 +14°C° 0 mm 3 mps 692 mmHg 19%
    18:00 +13°C° 0 mm 3 mps 692 mmHg 21%
    19:00 +11°C° 0 mm 3 mps 693 mmHg 22%
    20:00 +11°C° 0 mm 3 mps 693 mmHg 23%
    21:00 +10°C° 0 mm 3 mps 693 mmHg 24%
    22:00 +10°C° 0 mm 3 mps 693 mmHg 25%
    23:00 +10°C° 0 mm 4 mps 693 mmHg 26%

    Tomorrow, 22 July, Sunday

    Time Temperature Precipitation Wind Pressure Humidity
    00:00 +8°C° 0 mm 4 mps 694 mmHg 28%
    01:00 +8°C° 0 mm 4 mps 694 mmHg 29%
    02:00 +8°C° 0 mm 5 mps 695 mmHg 32%
    03:00 +7°C° 0 mm 6 mps 695 mmHg 34%
    04:00 +6°C° 0 mm 7 mps 696 mmHg 37%
    05:00 +5°C° 0 mm 7 mps 697 mmHg 44%
    06:00 +4°C° 0 mm 6 mps 698 mmHg 50%
    07:00 +3°C° 0 mm 5 mps 699 mmHg 56%
    08:00 +5°C° 0 mm 5 mps 700 mmHg 54%
    09:00 +6°C° 0 mm 4 mps 700 mmHg 53%
    10:00 +7°C° 0 mm 4 mps 701 mmHg 51%
    11:00 +8°C° 0 mm 4 mps 700 mmHg 47%
    12:00 +8°C° 0 mm 4 mps 700 mmHg 44%
    13:00 +10°C° 0 mm 3 mps 700 mmHg 40%
    14:00 +10°C° 0 mm 3 mps 700 mmHg 40%
    15:00 +10°C° 0 mm 3 mps 700 mmHg 40%
    16:00 +10°C° 0 mm 3 mps 700 mmHg 40%
    17:00 +8°C° 0 mm 3 mps 702 mmHg 44%
    18:00 +7°C° 0 mm 2 mps 703 mmHg 47%
    19:00 +6°C° 0 mm 2 mps 704 mmHg 50%
    20:00 +6°C° 0 mm 2 mps 704 mmHg 52%
    21:00 +5°C° 0 mm 2 mps 705 mmHg 54%
    22:00 +5°C° 0 mm 2 mps 706 mmHg 56%
    23:00 +4°C° 0 mm 2 mps 706 mmHg 57%

    Day after tomorrow, 23 July, Monday

    Time Temperature Precipitation Wind Pressure Humidity
    00:00 +4°C° 0 mm 2 mps 706 mmHg 58%
    01:00 +3°C° 0 mm 2 mps 706 mmHg 58%
    02:00 +3°C° 0 mm 2 mps 706 mmHg 58%
    03:00 +3°C° 0 mm 2 mps 706 mmHg 57%
    04:00 +2°C° 0 mm 2 mps 706 mmHg 57%
    05:00 +2°C° 0 mm 2 mps 706 mmHg 56%
    06:00 +2°C° 0 mm 2 mps 706 mmHg 55%
    07:00 +2°C° 0 mm 2 mps 707 mmHg 54%
    08:00 +3°C° 0 mm 2 mps 706 mmHg 50%
    09:00 +5°C° 0 mm 2 mps 706 mmHg 45%
    10:00 +6°C° 0 mm 2 mps 706 mmHg 40%
    11:00 +7°C° 0 mm 2 mps 705 mmHg 39%
    12:00 +8°C° 0 mm 3 mps 704 mmHg 37%
    13:00 +9°C° 0 mm 3 mps 703 mmHg 35%
    14:00 +9°C° 0 mm 3 mps 703 mmHg 35%
    15:00 +8°C° 0 mm 3 mps 703 mmHg 35%
    16:00 +8°C° 0 mm 2 mps 703 mmHg 36%
    17:00 +8°C° 0 mm 2 mps 703 mmHg 38%
    18:00 +7°C° 0 mm 2 mps 703 mmHg 40%
    19:00 +6°C° 0 mm 2 mps 703 mmHg 42%
    20:00 +6°C° 0 mm 2 mps 703 mmHg 42%
    21:00 +5°C° 0 mm 2 mps 703 mmHg 43%
    22:00 +5°C° 0 mm 2 mps 703 mmHg 43%
    23:00 +5°C° 0 mm 2 mps 702 mmHg 45%

    24 July, Tuesday

    Time Temperature Precipitation Wind Pressure Humidity
    00:00 +4°C° 0 mm 2 mps 702 mmHg 46%
    01:00 +4°C° 0 mm 2 mps 701 mmHg 47%
    02:00 +4°C° 0 mm 2 mps 701 mmHg 48%
    03:00 +4°C° 0 mm 2 mps 701 mmHg 49%
    04:00 +3°C° 0 mm 2 mps 700 mmHg 49%
    05:00 +3°C° 0 mm 2 mps 701 mmHg 49%
    06:00 +3°C° 0 mm 2 mps 701 mmHg 49%
    07:00 +3°C° 0 mm 2 mps 701 mmHg 48%
    08:00 +5°C° 0 mm 2 mps 701 mmHg 43%
    09:00 +7°C° 0 mm 2 mps 702 mmHg 38%
    10:00 +9°C° 0 mm 2 mps 702 mmHg 33%
    11:00 +10°C° 0 mm 2 mps 701 mmHg 30%
    12:00 +10°C° 0 mm 2 mps 701 mmHg 28%
    13:00 +12°C° 0 mm 2 mps 701 mmHg 26%
    14:00 +12°C° 0 mm 2 mps 701 mmHg 26%
    15:00 +12°C° 0 mm 2 mps 701 mmHg 26%
    16:00 +12°C° 0 mm 2 mps 701 mmHg 26%
    17:00 +10°C° 0 mm 2 mps 702 mmHg 29%
    18:00 +10°C° 0 mm 1 mps 702 mmHg 31%
    19:00 +9°C° 0 mm 1 mps 703 mmHg 33%
    20:00 +8°C° 0 mm 1 mps 703 mmHg 33%
    21:00 +8°C° 0 mm 1 mps 702 mmHg 33%
    22:00 +8°C° 0 mm 1 mps 702 mmHg 33%
    23:00 +8°C° 0 mm 1 mps 702 mmHg 34%

    25 July, Wednesday

    Time Temperature Precipitation Wind Pressure Humidity
    00:00 +7°C° 0 mm 1 mps 702 mmHg 35%
    01:00 +7°C° 0 mm 1 mps 702 mmHg 36%
    02:00 +6°C° 0 mm 2 mps 701 mmHg 37%
    03:00 +5°C° 0 mm 2 mps 701 mmHg 38%
    04:00 +5°C° 0 mm 2 mps 701 mmHg 40%
    05:00 +5°C° 0 mm 2 mps 701 mmHg 41%
    06:00 +5°C° 0 mm 2 mps 701 mmHg 42%
    07:00 +5°C° 0 mm 2 mps 701 mmHg 43%
    08:00 +7°C° 0 mm 2 mps 701 mmHg 38%
    09:00 +9°C° 0 mm 2 mps 701 mmHg 34%
    10:00 +11°C° 0 mm 3 mps 701 mmHg 30%
    11:00 +12°C° 0 mm 3 mps 700 mmHg 29%
    12:00 +13°C° 0 mm 3 mps 699 mmHg 27%
    13:00 +16°C° 0 mm 3 mps 699 mmHg 26%
    14:00 +14°C° 0 mm 3 mps 698 mmHg 27%
    15:00 +14°C° 0 mm 3 mps 698 mmHg 28%
    16:00 +15°C° 0 mm 2 mps 698 mmHg 29%
    17:00 +14°C° 0 mm 2 mps 698 mmHg 32%
    18:00 +12°C° 0 mm 2 mps 698 mmHg 34%
    19:00 +10°C° 0 mm 2 mps 698 mmHg 37%
    20:00 +10°C° 0 mm 2 mps 698 mmHg 38%
    21:00 +9°C° 0 mm 2 mps 698 mmHg 40%
    22:00 +9°C° 0 mm 1 mps 698 mmHg 41%
    23:00 +8°C° 0 mm 2 mps 697 mmHg 42%

    26 July, Thursday

    Time Temperature Precipitation Wind Pressure Humidity
    00:00 +8°C° 0 mm 2 mps 697 mmHg 44%
    01:00 +7°C° 0 mm 2 mps 697 mmHg 45%
    02:00 +7°C° 0 mm 2 mps 697 mmHg 46%
    03:00 +7°C° 0 mm 2 mps 697 mmHg 47%
    04:00 +6°C° 0 mm 2 mps 696 mmHg 48%
    05:00 +6°C° 0 mm 2 mps 697 mmHg 48%
    06:00 +6°C° 0 mm 2 mps 697 mmHg 48%
    07:00 +6°C° 0 mm 2 mps 697 mmHg 48%
    08:00 +8°C° 0 mm 2 mps 697 mmHg 44%
    09:00 +10°C° 0 mm 3 mps 698 mmHg 40%
    10:00 +12°C° 0 mm 3 mps 698 mmHg 36%
    11:00 +13°C° 0 mm 4 mps 698 mmHg 35%
    12:00 +14°C° 0 mm 4 mps 698 mmHg 34%
    13:00 +15°C° 0 mm 5 mps 697 mmHg 33%
    14:00 +14°C° 0 mm 5 mps 698 mmHg 35%
    15:00 +14°C° 0 mm 5 mps 698 mmHg 37%
    16:00 +13°C° 0 mm 4 mps 698 mmHg 39%
    17:00 +12°C° 0 mm 4 mps 698 mmHg 41%
    18:00 +11°C° 0 mm 4 mps 699 mmHg 44%
    19:00 +10°C° 0 mm 3 mps 700 mmHg 47%
    20:00 +9°C° 0 mm 3 mps 700 mmHg 47%
    21:00 +8°C° 0 mm 3 mps 700 mmHg 47%
    22:00 +8°C° 0 mm 3 mps 700 mmHg 48%
    23:00 +7°C° 0 mm 2 mps 700 mmHg 49%
    Show more